Hourly Data Report for September 04, 2010

IQALUIT CLIMATE
NUNAVUT

63°44'50.000" N
68°32'40.000" W
33.50 m
2402592
71321
XFB

Download Data

Hourly Data (September 2010)
Hourly Data Report for September 4, 2010
TIME
LST
Temp Definition
°C
Dew Point Definition
°C
Rel Hum Definition
%
Precip. Amount Definition
mm

Wind Dir Definition
10's deg

Wind Spd Definition
km/h
Visibility Definition
km
Stn Press Definition
kPa
Hmdx Definition


Wind Chill Definition


Weather Definition


00:00 4.8 3.6 92   3 6   101.15     LegendNANA
01:00 3.4 2.1 91   1 6   101.16     LegendNANA
02:00 2.8 2.1 95   1 7   101.16     LegendNANA
03:00 2.6 1.7 94   36 7   101.18     LegendNANA
04:00 2.7 2.0 95   34 4   101.21     LegendNANA
05:00 2.0 1.8 99   36 6   101.24     LegendNANA
06:00 5.0 3.4 89   20 2   101.25     LegendNANA
07:00 7.2 4.0 80     0   101.27     LegendNANA
08:00 8.3 4.2 75   15 4   101.31     LegendNANA
09:00 9.1 5.2 77   16 6   101.32     LegendNANA
10:00 9.9 4.8 71   21 6   101.34     LegendNANA
11:00 9.1 5.0 75   15 9   101.33     LegendNANA
12:00 9.4 5.0 74   14 7   101.32     LegendNANA
13:00 10.2 5.9 75   15 7   101.30     LegendNANA
14:00 9.3 5.5 77   15 9   101.30     LegendNANA
15:00 9.3 5.6 78   15 6   101.29     LegendNANA
16:00 9.9 5.7 75   14 6   101.28     LegendNANA
17:00 9.6 5.8 77   15 4   101.26     LegendNANA
18:00 9.1 5.3 77   15 4   101.25     LegendNANA
19:00 7.0 5.2 88   15 2   101.32     LegendNANA
20:00 7.0 4.6 85     0   101.35     LegendNANA
21:00 5.5 4.7 95   13 4   101.37     LegendNANA
22:00 5.2 3.9 91   15 11   101.39     LegendNANA
23:00 5.8 4.0 88   12 6   101.37     LegendNANA

Notes on Data Quality.

Legend

  • E = Estimated
  • M = Missing
  • NA = Not Available*
  • [empty] = Indicates an unobserved value
Date modified: